Mobridge, SD

7:17 AM CDT on August 21, 2017 (GMT -0500)
Mobridge Municipal

Weather History for KMBG - October, 2014

Change the Weather History Date:

Tuesday, October 14, 2014

  Actual Average Record
Temperature  
Mean Temperature 51 °F 48 °F  
Max Temperature 68 °F 61 °F 86 °F (1933)
Min Temperature 33 °F 35 °F 13 °F (1937)
Degree Days  
Heating Degree Days 14 17  
Month to date heating degree days 199 202  
Since 1 July heating degree days 401 422  
Cooling Degree Days 0 0  
Month to date cooling degree days 0 0  
Year to date cooling degree days 466 641  
Growing Degree Days 1 (Base 50)    
Moisture  
Dew Point 37 °F    
Average Humidity 61    
Maximum Humidity 96    
Minimum Humidity 26    
Precipitation  
Precipitation 0.00 in 0.04 in 1.53 in (2013)
Month to date precipitation 0.44 0.71  
Year to date precipitation 20.47 16.16  
Snow  
Snow 0.00 in - - ()
Month to date snowfall 0.0  
Since 1 July snowfall 0.0  
Snow Depth 0.00 in    
Sea Level Pressure  
Sea Level Pressure 30.01 in    
Wind  
Wind Speed 7 mph (SE)    
Max Wind Speed 16 mph    
Max Gust Speed 19 mph    
Visibility 10 miles    
Events      
T = Trace of Precipitation, MM = Missing Value Source: NWS Daily Summary

Daily Weather History Graph

Daily Weather History Graph

Search for Another Location

Airport or City:

Trip Planner

Search our weather history database for the weather conditions in past years. The results will help you decide how hot, cold, wet, or windy it might be!

Date:

Astronomy

Oct. 14, 2014 Rise Set
Actual Time 7:56 AM CDT 6:57 PM CDT
Civil Twilight 7:26 AM CDT 7:27 PM CDT
Nautical Twilight 6:52 AM CDT 8:01 PM CDT
Astronomical Twilight 6:18 AM CDT 8:36 PM CDT
Moon 11:56 PM CDT (10/14) 2:07 PM CDT (10/14)
Length of Visible Light 12h 00m
Length of Day
11h 01m
Waning Gibbous, 61% of the Moon is Illuminated
Oct 14
Waning Gibbous
Oct 15
Last Quarter
Oct 23
New
Oct 30
First Quarter
Nov 6
Full

Hourly Weather History & Observations

Time (CDT) Temp. Windchill Dew Point Humidity Pressure Visibility Wind Dir Wind Speed Gust Speed Precip Events Conditions
12:52 AM 39.0 °F 35.7 °F 36.0 °F 89% 30.01 in 10.0 mi North 4.6 mph - N/A   Clear
1:52 AM 42.1 °F 39.2 °F 39.0 °F 89% 30.01 in 10.0 mi NNW 4.6 mph - N/A   Clear
2:52 AM 41.0 °F 37.1 °F 37.9 °F 89% 30.01 in 10.0 mi North 5.8 mph - N/A   Clear
3:52 AM 36.0 °F 33.3 °F 34.0 °F 93% 30.01 in 10.0 mi North 3.5 mph - N/A   Clear
4:52 AM 34.0 °F 29.8 °F 32.0 °F 92% 30.01 in 10.0 mi North 4.6 mph - N/A   Clear
5:52 AM 35.1 °F - 33.1 °F 92% 30.02 in 10.0 mi Calm Calm - N/A   Clear
6:52 AM 35.1 °F 32.2 °F 33.1 °F 92% 30.04 in 10.0 mi NNE 3.5 mph - N/A   Clear
7:52 AM 35.1 °F 30.1 °F 32.0 °F 89% 30.06 in 10.0 mi North 5.8 mph - N/A   Clear
8:52 AM 39.0 °F 36.8 °F 35.1 °F 86% 30.05 in 10.0 mi NNW 3.5 mph - N/A   Clear
9:52 AM 46.0 °F - 39.9 °F 79% 30.06 in 10.0 mi Calm Calm - N/A   Clear
10:52 AM 50.0 °F - 42.1 °F 74% 30.06 in 10.0 mi SSE 3.5 mph - N/A   Clear
11:52 AM 55.9 °F - 41.0 °F 57% 30.04 in 10.0 mi SSE 5.8 mph - N/A   Clear
12:52 PM 63.0 °F - 41.0 °F 45% 30.03 in 10.0 mi SSE 8.1 mph - N/A   Clear
1:52 PM 66.0 °F - 37.0 °F 34% 30.00 in 10.0 mi SSE 11.5 mph - N/A   Clear
2:52 PM 68.0 °F - 32.0 °F 26% 29.99 in 10.0 mi SSE 11.5 mph - N/A   Clear
3:52 PM 66.9 °F - 34.0 °F 30% 29.98 in 10.0 mi South 10.4 mph - N/A   Clear
4:52 PM 68.0 °F - 33.1 °F 27% 29.97 in 10.0 mi SSW 13.8 mph - N/A   Clear
5:52 PM 66.9 °F - 34.0 °F 30% 29.96 in 10.0 mi South 10.4 mph - N/A   Clear
6:52 PM 57.0 °F - 39.9 °F 53% 29.98 in 10.0 mi SE 6.9 mph - N/A   Clear
7:52 PM 52.0 °F - 39.9 °F 63% 29.98 in 10.0 mi SE 9.2 mph - N/A   Clear
8:52 PM 48.9 °F - 41.0 °F 74% 29.99 in 10.0 mi SE 5.8 mph - N/A   Clear
9:52 PM 48.9 °F - 39.0 °F 69% 29.97 in 10.0 mi SSE 6.9 mph - N/A   Clear
10:52 PM 48.9 °F - 39.0 °F 69% 29.95 in 10.0 mi SSE 6.9 mph - N/A   Clear
11:52 PM 48.0 °F - 39.0 °F 71% 29.94 in 10.0 mi SE 8.1 mph - N/A   Clear